| time (UTC) | temp F | wind direction | speed knots | gust knots | rain 1hr in | rain 24hr in | rain mn in | humidity % | barometer mb |
| 20260504050508 | 47 | 329 | 6.1 | 6.1 | 0.00 | 0.00 | 0.00 | 59 | 1009.1 |
| 20260504050008 | 47 | 314 | 5.2 | 7.0 | 0.00 | 0.00 | 0.00 | 59 | 1009.1 |
| 20260504045508 | 46 | 192 | 2.6 | 2.6 | 0.00 | 0.00 | 0.00 | 59 | 1009.1 |
| 20260504044508 | 46 | 335 | 0.0 | 7.0 | 0.00 | 0.00 | 0.00 | 59 | 1009.1 |
| 20260504044008 | 46 | 324 | 4.3 | 5.2 | 0.00 | 0.00 | 0.00 | 58 | 1009.1 |
| 20260504043508 | 46 | 212 | 1.7 | 3.5 | 0.00 | 0.00 | 0.00 | 58 | 1009.4 |
| 20260504043008 | 46 | 31 | 3.5 | 3.5 | 0.00 | 0.00 | 0.00 | 58 | 1009.4 |
| 20260504042508 | 47 | 354 | 5.2 | 5.2 | 0.00 | 0.00 | 0.00 | 57 | 1009.4 |
| 20260504042007 | 47 | 294 | 1.7 | 4.3 | 0.00 | 0.00 | 0.00 | 57 | 1009.4 |
| 20260504041509 | 47 | 239 | 6.1 | 6.1 | 0.00 | 0.00 | 0.00 | 57 | 1009.4 |
| 20260504041008 | 47 | 209 | 2.6 | 6.1 | 0.00 | 0.00 | 0.00 | 57 | 1009.4 |
| 20260504040508 | 47 | 299 | 7.0 | 7.0 | 0.00 | 0.00 | 0.00 | 56 | 1009.4 |
| 20260504040009 | 47 | 245 | 0.9 | 2.6 | 0.00 | 0.00 | 0.00 | 55 | 1009.4 |
| 20260504035508 | 47 | 191 | 0.0 | 1.7 | 0.00 | 0.00 | 0.00 | 55 | 1009.4 |
| 20260504035008 | 47 | 259 | 7.0 | 7.0 | 0.00 | 0.00 | 0.00 | 55 | 1009.4 |
| 20260504034507 | 48 | 221 | 1.7 | 4.3 | 0.00 | 0.00 | 0.00 | 55 | 1009.4 |
| 20260504034008 | 48 | 220 | 0.9 | 4.3 | 0.00 | 0.00 | 0.00 | 54 | 1009.4 |
| 20260504033508 | 48 | 213 | 0.0 | 6.1 | 0.00 | 0.00 | 0.00 | 54 | 1009.4 |
| 20260504033008 | 48 | 177 | 0.9 | 8.7 | 0.00 | 0.00 | 0.00 | 54 | 1009.4 |
| 20260504032507 | 48 | 157 | 0.0 | 3.5 | 0.00 | 0.00 | 0.00 | 53 | 1009.4 |
| 20260504032007 | 48 | 238 | 0.9 | 2.6 | 0.00 | 0.00 | 0.00 | 54 | 1009.4 |
| 20260504031508 | 48 | 208 | 2.6 | 5.2 | 0.00 | 0.00 | 0.00 | 53 | 1009.4 |
| 20260504030009 | 48 | 247 | 0.0 | 1.7 | 0.00 | 0.00 | 0.00 | 52 | 1009.8 |
| 20260504025508 | 48 | 256 | 5.2 | 5.2 | 0.00 | 0.00 | 0.00 | 52 | 1009.8 |
| 20260504025008 | 49 | 289 | 5.2 | 5.2 | 0.00 | 0.00 | 0.00 | 52 | 1009.8 |
| 20260504024509 | 49 | 125 | 0.9 | 5.2 | 0.00 | 0.00 | 0.00 | 51 | 1009.8 |
| 20260504024008 | 49 | 249 | 1.7 | 4.3 | 0.00 | 0.00 | 0.00 | 52 | 1009.8 |
| 20260504023508 | 49 | 184 | 2.6 | 8.7 | 0.00 | 0.00 | 0.00 | 52 | 1009.8 |
| 20260504023009 | 49 | 236 | 2.6 | 4.3 | 0.00 | 0.00 | 0.00 | 51 | 1009.8 |
| 20260504022508 | 49 | 276 | 1.7 | 4.3 | 0.00 | 0.00 | 0.00 | 51 | 1010.1 |
| 20260504022008 | 50 | 251 | 2.6 | 2.6 | 0.00 | 0.00 | 0.00 | 50 | 1009.8 |
| 20260504021509 | 50 | 251 | 3.5 | 7.0 | 0.00 | 0.00 | 0.00 | 50 | 1009.8 |
| 20260504021008 | 50 | 235 | 5.2 | 9.6 | 0.00 | 0.00 | 0.00 | 49 | 1010.1 |
| 20260504020008 | 50 | 289 | 3.5 | 3.5 | 0.00 | 0.00 | 0.00 | 49 | 1010.1 |
| 20260504015507 | 50 | 304 | 0.9 | 6.1 | 0.00 | 0.00 | 0.00 | 49 | 1010.1 |
| 20260504014507 | 50 | 155 | 3.5 | 5.2 | 0.00 | 0.00 | 0.00 | 48 | 1010.1 |
| 20260504014010 | 51 | 301 | 3.5 | 5.2 | 0.00 | 0.00 | 0.00 | 48 | 1010.1 |
| 20260504013509 | 51 | 252 | 5.2 | 5.2 | 0.00 | 0.00 | 0.00 | 47 | 1010.1 |
| 20260504013009 | 51 | 256 | 1.7 | 6.1 | 0.00 | 0.00 | 0.00 | 47 | 1010.1 |
| 20260504012509 | 51 | 265 | 0.9 | 3.5 | 0.00 | 0.00 | 0.00 | 47 | 1010.1 |
| 20260504011508 | 51 | 290 | 1.7 | 2.6 | 0.00 | 0.00 | 0.00 | 46 | 1010.1 |
| 20260504011008 | 51 | 225 | 3.5 | 6.1 | 0.00 | 0.00 | 0.00 | 46 | 1010.1 |
| 20260504010508 | 51 | 277 | 5.2 | 5.2 | 0.00 | 0.00 | 0.00 | 46 | 1010.1 |
| 20260504010009 | 52 | 274 | 4.3 | 9.6 | 0.00 | 0.00 | 0.00 | 46 | 1010.1 |
| 20260504005008 | 52 | 261 | 7.8 | 7.8 | 0.00 | 0.00 | 0.00 | 44 | 1010.1 |
| 20260504004509 | 52 | 295 | 3.5 | 3.5 | 0.00 | 0.00 | 0.00 | 44 | 1009.8 |
| 20260504004008 | 52 | 265 | 3.5 | 8.7 | 0.00 | 0.00 | 0.00 | 44 | 1010.1 |
| 20260504003509 | 52 | 247 | 0.0 | 2.6 | 0.00 | 0.00 | 0.00 | 43 | 1009.8 |
| 20260504002509 | 53 | 251 | 1.7 | 4.3 | 0.00 | 0.00 | 0.00 | 40 | 1009.8 |
| 20260504002008 | 53 | 301 | 2.6 | 2.6 | 0.00 | 0.00 | 0.00 | 39 | 1009.8 |
| 20260504001508 | 53 | 314 | 2.6 | 3.5 | 0.00 | 0.00 | 0.00 | 39 | 1009.8 |
| 20260504001010 | 53 | 317 | 3.5 | 4.3 | 0.00 | 0.00 | 0.00 | 38 | 1009.8 |
| 20260504000508 | 53 | 302 | 0.9 | 7.0 | 0.00 | 0.00 | 0.00 | 38 | 1009.8 |
| 20260504000008 | 53 | 286 | 5.2 | 7.8 | 0.00 | 0.00 | 0.00 | 39 | 1009.8 |
| 20260503235509 | 53 | 292 | 4.3 | 4.3 | 0.00 | 0.00 | 0.00 | 39 | 1009.8 |
| 20260503235008 | 53 | 324 | 1.7 | 4.3 | 0.00 | 0.00 | 0.00 | 38 | 1009.8 |
| 20260503234508 | 54 | 330 | 5.2 | 5.2 | 0.00 | 0.00 | 0.00 | 38 | 1009.8 |
| 20260503233508 | 54 | 271 | 4.3 | 4.3 | 0.00 | 0.00 | 0.00 | 38 | 1009.8 |
| 20260503233008 | 54 | 303 | 1.7 | 4.3 | 0.00 | 0.00 | 0.00 | 37 | 1009.8 |
| 20260503232509 | 54 | 329 | 1.7 | 6.1 | 0.00 | 0.00 | 0.00 | 37 | 1009.4 |
| 20260503232008 | 55 | 343 | 2.6 | 2.6 | 0.00 | 0.00 | 0.00 | 36 | 1009.8 |
| 20260503231510 | 55 | 324 | 3.5 | 4.3 | 0.00 | 0.00 | 0.00 | 36 | 1009.4 |
| 20260503231008 | 55 | 290 | 5.2 | 5.2 | 0.00 | 0.00 | 0.00 | 36 | 1009.4 |
| 20260503230508 | 55 | 351 | 2.6 | 3.5 | 0.00 | 0.00 | 0.00 | 36 | 1009.4 |
| 20260503230008 | 55 | 332 | 3.5 | 5.2 | 0.00 | 0.00 | 0.00 | 36 | 1009.4 |
| 20260503225508 | 55 | 347 | 3.5 | 5.2 | 0.00 | 0.00 | 0.00 | 36 | 1009.4 |
| 20260503225009 | 55 | 263 | 0.0 | 4.3 | 0.00 | 0.00 | 0.00 | 36 | 1009.4 |
| 20260503224509 | 55 | 254 | 0.9 | 7.0 | 0.00 | 0.00 | 0.00 | 36 | 1009.4 |
| 20260503224008 | 55 | 237 | 5.2 | 7.0 | 0.00 | 0.00 | 0.00 | 36 | 1009.8 |
| 20260503223508 | 56 | 286 | 2.6 | 3.5 | 0.00 | 0.00 | 0.00 | 36 | 1009.8 |
| 20260503223008 | 56 | 322 | 3.5 | 6.1 | 0.00 | 0.00 | 0.00 | 36 | 1009.4 |
| 20260503222507 | 56 | 295 | 4.3 | 7.8 | 0.00 | 0.00 | 0.00 | 36 | 1009.4 |
| 20260503221509 | 56 | 322 | 5.2 | 5.2 | 0.00 | 0.00 | 0.00 | 35 | 1009.4 |
| 20260503221007 | 56 | 340 | 6.1 | 7.8 | 0.00 | 0.00 | 0.00 | 35 | 1009.4 |
| 20260503220509 | 56 | 309 | 8.7 | 9.6 | 0.00 | 0.00 | 0.00 | 36 | 1009.4 |
| 20260503220008 | 56 | 304 | 7.8 | 9.6 | 0.00 | 0.00 | 0.00 | 36 | 1009.8 |
| 20260503215507 | 56 | 20 | 5.2 | 7.8 | 0.00 | 0.00 | 0.00 | 36 | 1009.4 |
| 20260503215009 | 55 | 324 | 3.5 | 4.3 | 0.00 | 0.00 | 0.00 | 36 | 1009.4 |
| 20260503213508 | 56 | 331 | 2.6 | 5.2 | 0.00 | 0.00 | 0.00 | 36 | 1009.8 |
| 20260503213010 | 56 | 312 | 5.2 | 7.8 | 0.00 | 0.00 | 0.00 | 36 | 1009.8 |
| 20260503212507 | 56 | 309 | 8.7 | 8.7 | 0.00 | 0.00 | 0.00 | 37 | 1009.8 |
| 20260503212008 | 56 | 308 | 7.8 | 7.8 | 0.00 | 0.00 | 0.00 | 37 | 1009.8 |
| 20260503211508 | 55 | 281 | 2.6 | 6.1 | 0.00 | 0.00 | 0.00 | 38 | 1009.8 |
| 20260503211008 | 55 | 335 | 3.5 | 7.0 | 0.00 | 0.00 | 0.00 | 38 | 1009.8 |
| 20260503210508 | 55 | 222 | 6.1 | 7.0 | 0.00 | 0.00 | 0.00 | 38 | 1009.4 |
| 20260503210008 | 55 | 280 | 7.0 | 7.0 | 0.00 | 0.00 | 0.00 | 37 | 1009.8 |
| 20260503205507 | 55 | 305 | 4.3 | 6.1 | 0.00 | 0.00 | 0.00 | 38 | 1009.8 |
| 20260503205007 | 55 | 236 | 0.0 | 6.1 | 0.00 | 0.00 | 0.00 | 37 | 1009.8 |
| 20260503204509 | 56 | 247 | 7.8 | 8.7 | 0.00 | 0.00 | 0.00 | 37 | 1009.8 |
| 20260503204008 | 56 | 251 | 5.2 | 7.8 | 0.00 | 0.00 | 0.00 | 36 | 1009.4 |
| 20260503203508 | 57 | 353 | 4.3 | 7.0 | 0.00 | 0.00 | 0.00 | 36 | 1009.8 |
| 20260503202007 | 56 | 1 | 3.5 | 7.8 | 0.00 | 0.00 | 0.00 | 38 | 1009.8 |
| 20260503201508 | 55 | 318 | 4.3 | 5.2 | 0.00 | 0.00 | 0.00 | 40 | 1009.8 |
| 20260503201007 | 54 | 301 | 7.0 | 7.0 | 0.00 | 0.00 | 0.00 | 40 | 1010.1 |
| 20260503200009 | 55 | 311 | 8.7 | 10.4 | 0.00 | 0.00 | 0.00 | 39 | 1010.1 |
| 20260503195508 | 55 | 346 | 3.5 | 5.2 | 0.00 | 0.00 | 0.00 | 40 | 1010.1 |
| 20260503194508 | 54 | 318 | 3.5 | 3.5 | 0.00 | 0.00 | 0.00 | 43 | 1010.1 |
| 20260503193508 | 54 | 312 | 3.5 | 3.5 | 0.00 | 0.00 | 0.00 | 43 | 1010.4 |
| 20260503193008 | 54 | 298 | 0.0 | 3.5 | 0.00 | 0.00 | 0.00 | 44 | 1010.4 |
| 20260503192508 | 53 | 50 | 0.0 | 1.7 | 0.00 | 0.00 | 0.00 | 44 | 1010.8 |
| 20260503192008 | 53 | 50 | 0.0 | 1.7 | 0.00 | 0.00 | 0.00 | 44 | 1010.8 |
| 20260503191008 | 53 | 30 | 2.6 | 4.3 | 0.00 | 0.00 | 0.00 | 44 | 1010.8 |
| 20260503190507 | 53 | 320 | 0.9 | 3.5 | 0.00 | 0.00 | 0.00 | 43 | 1010.8 |
| 20260503190010 | 53 | 81 | 2.6 | 3.5 | 0.00 | 0.00 | 0.00 | 44 | 1010.8 |
| 20260503185508 | 52 | 340 | 1.7 | 2.6 | 0.00 | 0.00 | 0.00 | 44 | 1010.8 |
| 20260503185008 | 53 | 336 | 0.9 | 2.6 | 0.00 | 0.00 | 0.00 | 45 | 1011.1 |
| 20260503184008 | 53 | 331 | 2.6 | 2.6 | 0.00 | 0.00 | 0.00 | 44 | 1011.1 |
| 20260503183507 | 53 | 285 | 2.6 | 3.5 | 0.00 | 0.00 | 0.00 | 44 | 1011.1 |
| 20260503183009 | 53 | 18 | 2.6 | 5.2 | 0.00 | 0.00 | 0.00 | 43 | 1011.1 |
| 20260503181508 | 54 | 299 | 4.3 | 5.2 | 0.00 | 0.00 | 0.00 | 44 | 1011.5 |
| 20260503181008 | 53 | 276 | 5.2 | 6.1 | 0.00 | 0.00 | 0.00 | 46 | 1011.5 |
| 20260503180508 | 52 | 321 | 0.0 | 5.2 | 0.00 | 0.00 | 0.00 | 46 | 1011.5 |
| 20260503180008 | 52 | 327 | 0.9 | 4.3 | 0.00 | 0.00 | 0.00 | 47 | 1011.5 |
| 20260503175508 | 53 | 336 | 3.5 | 3.5 | 0.00 | 0.00 | 0.00 | 46 | 1011.8 |
| 20260503175008 | 54 | 337 | 7.0 | 8.7 | 0.00 | 0.00 | 0.00 | 44 | 1011.5 |
| 20260503174508 | 54 | 336 | 6.1 | 6.1 | 0.00 | 0.00 | 0.00 | 43 | 1011.5 |
| 20260503174008 | 55 | 335 | 3.5 | 5.2 | 0.00 | 0.00 | 0.00 | 43 | 1011.5 |
| 20260503173508 | 55 | 313 | 6.1 | 7.0 | 0.00 | 0.00 | 0.00 | 44 | 1011.8 |
| 20260503173008 | 55 | 275 | 0.9 | 6.1 | 0.00 | 0.00 | 0.00 | 45 | 1011.8 |
| 20260503172508 | 54 | 302 | 7.0 | 7.0 | 0.00 | 0.00 | 0.00 | 46 | 1011.8 |
| 20260503172007 | 54 | 200 | 3.5 | 3.5 | 0.00 | 0.00 | 0.00 | 45 | 1011.8 |
| 20260503171508 | 54 | 294 | 3.5 | 5.2 | 0.00 | 0.00 | 0.00 | 46 | 1012.1 |
| 20260503171008 | 52 | 280 | 4.3 | 5.2 | 0.00 | 0.00 | 0.00 | 49 | 1012.1 |
| 20260503170509 | 51 | 290 | 0.0 | 3.5 | 0.00 | 0.00 | 0.00 | 50 | 1012.1 |
| 20260503150509 | 52 | 267 | 0.9 | 2.6 | 0.00 | 0.00 | 0.00 | 46 | 1013.8 |
| 20260503131008 | 44 | 98 | 0.0 | 0.0 | 0.00 | 0.00 | 0.00 | 67 | 1014.9 |
| 20260503130508 | 44 | 115 | 0.0 | 0.0 | 0.00 | 0.00 | 0.00 | 68 | 1014.9 |
| 20260503090508 | 38 | 298 | 0.0 | 0.0 | 0.00 | 0.00 | 0.00 | 83 | 1014.2 |
| 20260503080509 | 39 | 322 | 0.0 | 0.0 | 0.00 | 0.00 | 0.00 | 81 | 1014.5 |
| 20260503072507 | 39 | 357 | 0.0 | 0.0 | 0.00 | 0.00 | 0.00 | 80 | 1014.5 |